• Em Portugal
  • Lista de países
  • Para 7 dias
  • Temperatura da água
  • Mapas de satélite
  • Mapa do tempo
  • Widgets de tempo
  • user-avatar
    Iniciar Sessão

    Previsão horária em Speshnevo

    Hoje, 22 Setembro, Sábado

    Tempo Temperatura Precipitação Vento Pressão Humidade
    00:00 +17°C° 0 mm 2 m/s 741 mmHg 72%
    01:00 +16°C° 0 mm 2 m/s 741 mmHg 73%
    02:00 +16°C° 0 mm 2 m/s 741 mmHg 71%
    03:00 +16°C° 0 mm 2 m/s 741 mmHg 72%
    04:00 +16°C° 0 mm 2 m/s 741 mmHg 72%
    05:00 +15°C° 0 mm 2 m/s 741 mmHg 73%
    06:00 +17°C° 0 mm 2 m/s 741 mmHg 71%
    07:00 +18°C° 0 mm 3 m/s 740 mmHg 68%
    08:00 +19°C° 0 mm 3 m/s 740 mmHg 64%
    09:00 +21°C° 0 mm 4 m/s 740 mmHg 60%
    10:00 +22°C° 0 mm 4 m/s 740 mmHg 57%
    11:00 +25°C° 0 mm 5 m/s 740 mmHg 53%
    12:00 +25°C° 0 mm 5 m/s 740 mmHg 51%
    13:00 +26°C° 0 mm 6 m/s 739 mmHg 49%
    14:00 +27°C° 0 mm 5 m/s 739 mmHg 47%
    15:00 +26°C° 0 mm 5 m/s 738 mmHg 51%
    16:00 +23°C° 0 mm 4 m/s 738 mmHg 55%
    17:00 +22°C° 0 mm 4 m/s 737 mmHg 60%
    18:00 +21°C° 0 mm 5 m/s 737 mmHg 58%
    19:00 +21°C° 0 mm 5 m/s 736 mmHg 56%
    20:00 +20°C° 0 mm 5 m/s 736 mmHg 55%
    21:00 +20°C° 0 mm 6 m/s 736 mmHg 53%
    22:00 +20°C° 0 mm 6 m/s 735 mmHg 52%
    23:00 +19°C° 0 mm 6 m/s 735 mmHg 50%

    Amanhã, 23 Setembro, Domingo

    Tempo Temperatura Precipitação Vento Pressão Humidade
    00:00 +19°C° 0 mm 6 m/s 734 mmHg 50%
    01:00 +19°C° 0 mm 6 m/s 734 mmHg 50%
    02:00 +19°C° 0 mm 6 m/s 734 mmHg 51%
    03:00 +17°C° 0.1 mm 6 m/s 734 mmHg 56%
    04:00 +16°C° 0.1 mm 6 m/s 733 mmHg 61%
    05:00 +15°C° 0.1 mm 5 m/s 733 mmHg 66%
    06:00 +14°C° 0.9 mm 6 m/s 733 mmHg 73%
    07:00 +11°C° 0.9 mm 6 m/s 733 mmHg 80%
    08:00 +9°C° 0.9 mm 7 m/s 734 mmHg 87%
    09:00 +9°C° 0.5 mm 6 m/s 734 mmHg 85%
    10:00 +9°C° 0.5 mm 5 m/s 735 mmHg 83%
    11:00 +9°C° 0.5 mm 5 m/s 735 mmHg 81%
    12:00 +10°C° 0 mm 5 m/s 736 mmHg 79%
    13:00 +11°C° 0 mm 4 m/s 736 mmHg 76%
    14:00 +12°C° 0 mm 4 m/s 736 mmHg 74%
    15:00 +12°C° 0 mm 4 m/s 736 mmHg 74%
    16:00 +12°C° 0 mm 3 m/s 736 mmHg 74%
    17:00 +12°C° 0 mm 3 m/s 736 mmHg 74%
    18:00 +11°C° 0 mm 3 m/s 736 mmHg 77%
    19:00 +10°C° 0 mm 3 m/s 736 mmHg 81%
    20:00 +9°C° 0 mm 3 m/s 736 mmHg 84%
    21:00 +9°C° 0 mm 3 m/s 736 mmHg 85%
    22:00 +9°C° 0 mm 3 m/s 736 mmHg 87%
    23:00 +8°C° 0 mm 3 m/s 736 mmHg 89%

    Depois de amanhã, 24 Setembro, Segunda-feira

    Tempo Temperatura Precipitação Vento Pressão Humidade
    00:00 +8°C° 0 mm 3 m/s 736 mmHg 89%
    01:00 +8°C° 0 mm 3 m/s 736 mmHg 90%
    02:00 +7°C° 0 mm 3 m/s 736 mmHg 90%
    03:00 +7°C° 0 mm 3 m/s 736 mmHg 89%
    04:00 +8°C° 0 mm 3 m/s 736 mmHg 87%
    05:00 +8°C° 0 mm 3 m/s 736 mmHg 86%
    06:00 +9°C° 0 mm 3 m/s 736 mmHg 81%
    07:00 +10°C° 0 mm 4 m/s 735 mmHg 77%
    08:00 +11°C° 0 mm 4 m/s 735 mmHg 73%
    09:00 +10°C° 0.2 mm 5 m/s 735 mmHg 72%
    10:00 +10°C° 0.2 mm 6 m/s 734 mmHg 71%
    11:00 +11°C° 0.2 mm 7 m/s 734 mmHg 70%
    12:00 +10°C° 1.6 mm 8 m/s 732 mmHg 75%
    13:00 +9°C° 1.6 mm 8 m/s 731 mmHg 80%
    14:00 +8°C° 1.6 mm 9 m/s 730 mmHg 86%
    15:00 +8°C° 1.8 mm 9 m/s 729 mmHg 86%
    16:00 +8°C° 1.8 mm 10 m/s 727 mmHg 87%
    17:00 +9°C° 1.8 mm 10 m/s 726 mmHg 88%
    18:00 +9°C° 1 mm 10 m/s 725 mmHg 88%
    19:00 +11°C° 1 mm 10 m/s 724 mmHg 88%
    20:00 +11°C° 1 mm 10 m/s 723 mmHg 88%
    21:00 +9°C° 0.1 mm 10 m/s 723 mmHg 86%
    22:00 +8°C° 0.1 mm 10 m/s 723 mmHg 84%
    23:00 +7°C° 0.1 mm 9 m/s 724 mmHg 82%

    25 Setembro, Terça-feira

    Tempo Temperatura Precipitação Vento Pressão Humidade
    00:00 +7°C° 0 mm 9 m/s 724 mmHg 83%
    01:00 +6°C° 0 mm 9 m/s 725 mmHg 83%
    02:00 +6°C° 0 mm 8 m/s 726 mmHg 83%
    03:00 +6°C° 0 mm 8 m/s 726 mmHg 83%
    04:00 +6°C° 0 mm 8 m/s 727 mmHg 83%
    05:00 +6°C° 0 mm 8 m/s 727 mmHg 84%
    06:00 +6°C° 0 mm 8 m/s 728 mmHg 82%
    07:00 +6°C° 0 mm 8 m/s 728 mmHg 81%
    08:00 +6°C° 0 mm 8 m/s 729 mmHg 79%
    09:00 +6°C° 0 mm 8 m/s 729 mmHg 78%
    10:00 +6°C° 0 mm 8 m/s 730 mmHg 77%
    11:00 +6°C° 0 mm 8 m/s 731 mmHg 76%
    12:00 +6°C° 0 mm 8 m/s 732 mmHg 76%
    13:00 +6°C° 0 mm 8 m/s 732 mmHg 75%
    14:00 +5°C° 0 mm 8 m/s 733 mmHg 74%
    15:00 +5°C° 0 mm 7 m/s 733 mmHg 74%
    16:00 +5°C° 0 mm 7 m/s 734 mmHg 74%
    17:00 +5°C° 0 mm 7 m/s 734 mmHg 74%
    18:00 +5°C° 0 mm 6 m/s 735 mmHg 74%
    19:00 +4°C° 0 mm 6 m/s 736 mmHg 74%
    20:00 +5°C° 0 mm 5 m/s 736 mmHg 75%
    21:00 +5°C° 0 mm 5 m/s 737 mmHg 76%
    22:00 +3°C° 0 mm 5 m/s 737 mmHg 77%
    23:00 +3°C° 0 mm 5 m/s 737 mmHg 78%

    26 Setembro, Quarta-feira

    Tempo Temperatura Precipitação Vento Pressão Humidade
    00:00 +3°C° 0 mm 5 m/s 738 mmHg 78%
    01:00 +3°C° 0 mm 5 m/s 739 mmHg 78%
    02:00 +3°C° 0 mm 5 m/s 739 mmHg 79%
    03:00 +2°C° 0 mm 5 m/s 740 mmHg 78%
    04:00 +2°C° 0 mm 5 m/s 740 mmHg 78%
    05:00 +1°C° 0 mm 5 m/s 741 mmHg 78%
    06:00 +2°C° 0 mm 5 m/s 742 mmHg 74%
    07:00 +2°C° 0 mm 5 m/s 742 mmHg 71%
    08:00 +3°C° 0 mm 6 m/s 743 mmHg 67%
    09:00 +4°C° 0 mm 6 m/s 743 mmHg 62%
    10:00 +5°C° 0 mm 6 m/s 743 mmHg 57%
    11:00 +7°C° 0 mm 6 m/s 744 mmHg 52%
    12:00 +8°C° 0 mm 6 m/s 744 mmHg 51%
    13:00 +9°C° 0 mm 6 m/s 743 mmHg 51%
    14:00 +9°C° 0 mm 6 m/s 743 mmHg 50%
    15:00 +8°C° 0 mm 6 m/s 743 mmHg 54%
    16:00 +8°C° 0 mm 5 m/s 743 mmHg 58%
    17:00 +7°C° 0 mm 4 m/s 743 mmHg 63%
    18:00 +7°C° 0 mm 5 m/s 743 mmHg 64%
    19:00 +7°C° 0 mm 5 m/s 742 mmHg 66%
    20:00 +7°C° 0 mm 6 m/s 742 mmHg 67%
    21:00 +7°C° 0 mm 6 m/s 742 mmHg 69%
    22:00 +6°C° 0 mm 7 m/s 741 mmHg 72%
    23:00 +6°C° 0 mm 7 m/s 741 mmHg 74%

    27 Setembro, Quinta-feira

    Tempo Temperatura Precipitação Vento Pressão Humidade
    00:00 +5°C° 0.2 mm 7 m/s 740 mmHg 76%
    01:00 +5°C° 0.2 mm 8 m/s 740 mmHg 77%
    02:00 +5°C° 0.2 mm 8 m/s 739 mmHg 79%
    03:00 +5°C° 0.3 mm 9 m/s 738 mmHg 79%
    04:00 +5°C° 0.3 mm 9 m/s 738 mmHg 78%
    05:00 +3°C° 0.3 mm 9 m/s 737 mmHg 78%
    06:00 +5°C° 0.1 mm 10 m/s 736 mmHg 78%
    07:00 +5°C° 0.1 mm 10 m/s 736 mmHg 79%
    08:00 +5°C° 0.1 mm 10 m/s 736 mmHg 79%
    09:00 +5°C° 0 mm 10 m/s 735 mmHg 79%
    10:00 +6°C° 0 mm 9 m/s 735 mmHg 79%
    11:00 +7°C° 0 mm 9 m/s 735 mmHg 78%
    12:00 +7°C° 0.3 mm 9 m/s 735 mmHg 80%
    13:00 +6°C° 0.3 mm 9 m/s 734 mmHg 82%
    14:00 +6°C° 0.3 mm 9 m/s 734 mmHg 84%
    15:00 +6°C° 0.4 mm 9 m/s 733 mmHg 85%
    16:00 +6°C° 0.4 mm 9 m/s 733 mmHg 86%
    17:00 +7°C° 0.4 mm 9 m/s 733 mmHg 86%
    18:00 +7°C° 0.3 mm 8 m/s 732 mmHg 87%
    19:00 +7°C° 0.3 mm 8 m/s 732 mmHg 87%
    20:00 +9°C° 0.3 mm 8 m/s 732 mmHg 88%
    21:00 +9°C° 0.2 mm 8 m/s 732 mmHg 87%
    22:00 +8°C° 0.2 mm 9 m/s 731 mmHg 87%
    23:00 +10°C° 0.2 mm 9 m/s 731 mmHg 86%
    Mostrar mais